Jaffrey, NH

2:04 PM EST on December 17, 2017 (GMT -0500)
Jaffrey Airport-Silver Ranch

Weather History for KAFN - February, 2013

Change the Weather History Date:

Saturday, February 2, 2013

  Actual Average Record
Temperature  
Mean Temperature 16 °F -  
Max Temperature 23 °F 30 °F 45 °F (1998)
Min Temperature 10 °F 12 °F -2 °F (2005)
Degree Days  
Heating Degree Days 48    
Moisture  
Dew Point 3 °F    
Average Humidity 54    
Maximum Humidity 81    
Minimum Humidity 44    
Precipitation  
Precipitation 0.00 in - - ()
Sea Level Pressure  
Sea Level Pressure 30.11 in    
Wind  
Wind Speed 8 mph (SW)    
Max Wind Speed 12 mph    
Max Gust Speed 20 mph    
Visibility 10 miles    
Events Snow    
Averages and records for this station are not official NWS values.
T = Trace of Precipitation, MM = Missing Value Source: NWS Daily Summary

Daily Weather History Graph

Daily Weather History Graph

Search for Another Location

Airport or City:

Trip Planner

Search our weather history database for the weather conditions in past years. The results will help you decide how hot, cold, wet, or windy it might be!

Date:

Astronomy

Feb. 02, 2013 Rise Set
Actual Time 7:01 AM EST 5:02 PM EST
Civil Twilight 6:31 AM EST 5:32 PM EST
Nautical Twilight 5:57 AM EST 6:06 PM EST
Astronomical Twilight 5:24 AM EST 6:39 PM EST
Moon No Moon Rise 9:58 AM EST (2/2)
Length of Visible Light 11h 01m
Length of Day
10h 01m
Waning Gibbous, 60% of the Moon is Illuminated
Feb 2
Waning Gibbous
Feb 3
Last Quarter
Feb 10
New
Feb 17
First Quarter
Feb 25
Full

Hourly Weather History & Observations

Time (EST) Temp. Windchill Dew Point Humidity Pressure Visibility Wind Dir Wind Speed Gust Speed Precip Events Conditions
12:52 AM 16.0 °F 5.3 °F 1.0 °F 52% 30.09 in 10.0 mi West 8.1 mph 16.1 mph N/A   Overcast
1:44 AM 15.8 °F 4.2 °F 3.2 °F 58% 30.04 in 10.0 mi West 9.2 mph 16.1 mph N/A   Overcast
1:52 AM 15.1 °F 2.5 °F 3.9 °F 61% 30.12 in 10.0 mi West 10.4 mph 16.1 mph N/A   Overcast
2:52 AM 14.0 °F 0.5 °F -2.0 °F 49% 30.12 in 10.0 mi WNW 11.5 mph 19.6 mph N/A   Clear
3:52 AM 12.9 °F 2.6 °F -0.9 °F 54% 30.14 in 10.0 mi West 6.9 mph - N/A   Clear
4:52 AM 12.9 °F -0.2 °F -0.9 °F 54% 30.16 in 10.0 mi WNW 10.4 mph - N/A   Clear
5:52 AM 12.0 °F 1.5 °F -0.9 °F 56% 30.17 in 10.0 mi SW 6.9 mph - N/A   Clear
6:52 AM 10.9 °F - -0.0 °F 61% 30.19 in 10.0 mi Calm Calm - N/A   Clear
7:52 AM 10.9 °F 2.9 °F 1.0 °F 64% 30.21 in 10.0 mi SW 4.6 mph - N/A   Clear
8:52 AM 12.9 °F 5.2 °F -0.9 °F 54% 30.22 in 10.0 mi SW 4.6 mph - N/A   Clear
9:52 AM 16.0 °F 6.3 °F -0.0 °F 49% 30.22 in 10.0 mi Variable 6.9 mph - N/A   Clear
10:52 AM 18.0 °F 12.7 °F 1.0 °F 48% 30.19 in 10.0 mi Variable 3.5 mph - N/A   Mostly Cloudy
11:52 AM 19.0 °F 11.1 °F 1.9 °F 47% 30.16 in 10.0 mi SSE 5.8 mph - N/A   Scattered Clouds
12:52 PM 23.0 °F 13.1 °F 3.9 °F 44% 30.12 in 10.0 mi WSW 9.2 mph 16.1 mph N/A   Clear
1:52 PM 21.0 °F 12.4 °F 3.9 °F 48% 30.10 in 10.0 mi SSW 6.9 mph - N/A   Overcast
3:52 PM 23.0 °F 13.1 °F 5.0 °F 46% 30.06 in 10.0 mi SSW 9.2 mph 18.4 mph N/A   Overcast
4:52 PM 23.0 °F 14.7 °F 3.9 °F 44% 30.05 in 10.0 mi SSW 6.9 mph - N/A   Overcast
5:52 PM 23.0 °F 12.4 °F 3.9 °F 44% 30.05 in 10.0 mi SSW 10.4 mph - N/A   Overcast
6:52 PM 21.9 °F 12.5 °F 3.9 °F 46% 30.05 in 10.0 mi South 8.1 mph - N/A   Overcast
7:52 PM 21.9 °F 12.5 °F 3.9 °F 46% 30.04 in 10.0 mi SSW 8.1 mph - N/A   Overcast
9:52 PM 21.9 °F 17.2 °F 6.1 °F 51% 30.04 in 10.0 mi WSW 3.5 mph - N/A   Overcast
10:52 PM 19.9 °F 12.1 °F 12.9 °F 74% 30.04 in 4.0 mi SW 5.8 mph - 0.00 in Snow Light Snow
11:52 PM 19.0 °F 12.3 °F 14.0 °F 81% 30.05 in 7.0 mi SSW 4.6 mph - 0.00 in   Overcast